Year,Month,Day,Hour,Minute,Value (Times are PST for windgust in km/hr)
2006,11,10,00,00,27.40
2006,11,10,00,01,27.40
2006,11,10,00,02,22.50
2006,11,10,00,03,29.00
2006,11,10,00,04,29.00
2006,11,10,00,05,30.60
2006,11,10,00,06,29.00
2006,11,10,00,07,25.70
2006,11,10,00,08,25.70
2006,11,10,00,09,32.20
2006,11,10,00,10,29.00
2006,11,10,00,11,19.30
2006,11,10,00,12,17.70
2006,11,10,00,13,22.50
2006,11,10,00,14,19.30
2006,11,10,00,15,27.40
2006,11,10,00,16,32.20
2006,11,10,00,17,33.80
2006,11,10,00,18,27.40
2006,11,10,00,19,27.40
2006,11,10,00,20,27.40
2006,11,10,00,21,27.40
2006,11,10,00,22,25.70
2006,11,10,00,23,24.20
2006,11,10,00,24,29.00
2006,11,10,00,25,22.50
2006,11,10,00,26,19.30
2006,11,10,00,27,16.10
2006,11,10,00,28,14.50
2006,11,10,00,29,16.10
2006,11,10,00,30,16.10
2006,11,10,00,31,14.50
2006,11,10,00,32,24.20
2006,11,10,00,33,25.70
2006,11,10,00,34,22.50
2006,11,10,00,35,27.40
2006,11,10,00,36,38.60
2006,11,10,00,37,20.90
2006,11,10,00,38,11.30
2006,11,10,00,39,38.60
2006,11,10,00,40,32.20
2006,11,10,00,41,32.20
2006,11,10,00,42,25.70
2006,11,10,00,43,22.50
2006,11,10,00,44,29.00
2006,11,10,00,45,24.20
2006,11,10,00,46,27.40
2006,11,10,00,47,24.20
2006,11,10,00,48,35.40
2006,11,10,00,49,27.40
2006,11,10,00,50,38.60
2006,11,10,00,51,27.40
2006,11,10,00,52,25.70
2006,11,10,00,53,29.00
2006,11,10,00,54,16.10
2006,11,10,00,55,22.50
2006,11,10,00,56,27.40
2006,11,10,00,57,20.90
2006,11,10,00,58,17.70
2006,11,10,00,59,20.90
2006,11,10,01,00,19.30
2006,11,10,01,01,17.70
2006,11,10,01,02,20.90
2006,11,10,01,03,24.20
2006,11,10,01,04,25.70
2006,11,10,01,05,27.40
2006,11,10,01,06,29.00
2006,11,10,01,07,27.40
2006,11,10,01,08,22.50
2006,11,10,01,09,32.20
2006,11,10,01,10,29.00
2006,11,10,01,11,27.40
2006,11,10,01,12,22.50
2006,11,10,01,13,27.40
2006,11,10,01,14,27.40
2006,11,10,01,15,27.40
2006,11,10,01,16,35.40
2006,11,10,01,17,25.70
2006,11,10,01,18,24.20
2006,11,10,01,19,22.50
2006,11,10,01,20,17.70
2006,11,10,01,21,19.30
2006,11,10,01,22,30.60
2006,11,10,01,23,30.60
2006,11,10,01,24,25.70
2006,11,10,01,25,35.40
2006,11,10,01,26,40.20
2006,11,10,01,27,40.20
2006,11,10,01,28,38.60
2006,11,10,01,29,33.80
2006,11,10,01,30,41.80
2006,11,10,01,31,48.30
2006,11,10,01,32,49.90
2006,11,10,01,33,32.20
2006,11,10,01,34,32.20
2006,11,10,01,35,37.00
2006,11,10,01,36,27.40
2006,11,10,01,37,32.20
2006,11,10,01,38,40.20
2006,11,10,01,39,29.00
2006,11,10,01,40,40.20
2006,11,10,01,41,33.80
2006,11,10,01,42,30.60
2006,11,10,01,43,16.10
2006,11,10,01,44,16.10
2006,11,10,01,45,16.10
2006,11,10,01,46,16.10
2006,11,10,01,47,16.10
2006,11,10,01,48,35.40
2006,11,10,01,49,32.20
2006,11,10,01,50,24.20
2006,11,10,01,51,38.60
2006,11,10,01,52,32.20
2006,11,10,01,53,35.40
2006,11,10,01,54,25.70
2006,11,10,01,55,45.10
2006,11,10,01,56,35.40
2006,11,10,01,57,35.40
2006,11,10,01,58,27.40
2006,11,10,01,59,35.40
2006,11,10,02,00,40.20
2006,11,10,02,01,38.60
2006,11,10,02,02,40.20
2006,11,10,02,03,29.00
2006,11,10,02,04,30.60
2006,11,10,02,05,37.00
2006,11,10,02,06,41.80
2006,11,10,02,07,37.00
2006,11,10,02,08,37.00
2006,11,10,02,09,45.10
2006,11,10,02,10,33.80
2006,11,10,02,11,30.60
2006,11,10,02,12,45.10
2006,11,10,02,13,38.60
2006,11,10,02,14,24.20
2006,11,10,02,15,45.10
2006,11,10,02,16,33.80
2006,11,10,02,17,41.80
2006,11,10,02,18,45.10
2006,11,10,02,19,49.90
2006,11,10,02,20,37.00
2006,11,10,02,21,33.80
2006,11,10,02,22,38.60
2006,11,10,02,23,35.40
2006,11,10,02,24,30.60
2006,11,10,02,25,24.20
2006,11,10,02,26,32.20
2006,11,10,02,27,40.20
2006,11,10,02,28,27.40
2006,11,10,02,29,46.70
2006,11,10,02,30,37.00
2006,11,10,02,31,45.10
2006,11,10,02,32,48.30
2006,11,10,02,33,38.60
2006,11,10,02,34,24.20
2006,11,10,02,35,27.40
2006,11,10,02,36,37.00
2006,11,10,02,37,25.70
2006,11,10,02,38,41.80
2006,11,10,02,39,35.40
2006,11,10,02,40,40.20
2006,11,10,02,41,41.80
2006,11,10,02,42,37.00
2006,11,10,02,43,29.00
2006,11,10,02,44,25.70
2006,11,10,02,45,40.20
2006,11,10,02,46,33.80
2006,11,10,02,47,37.00
2006,11,10,02,48,32.20
2006,11,10,02,49,38.60
2006,11,10,02,50,29.00
2006,11,10,02,51,30.60
2006,11,10,02,52,37.00
2006,11,10,02,53,19.30
2006,11,10,02,54,30.60
2006,11,10,02,55,33.80
2006,11,10,02,56,27.40
2006,11,10,02,57,32.20
2006,11,10,02,58,38.60
2006,11,10,02,59,37.00
2006,11,10,03,00,29.00
2006,11,10,03,01,33.80
2006,11,10,03,02,40.20
2006,11,10,03,03,35.40
2006,11,10,03,04,29.00
2006,11,10,03,05,41.80
2006,11,10,03,06,30.60
2006,11,10,03,07,27.40
2006,11,10,03,08,41.80
2006,11,10,03,09,46.70
2006,11,10,03,10,40.20
2006,11,10,03,11,33.80
2006,11,10,03,12,33.80
2006,11,10,03,13,25.70
2006,11,10,03,14,33.80
2006,11,10,03,15,30.60
2006,11,10,03,16,33.80
2006,11,10,03,17,45.10
2006,11,10,03,18,37.00
2006,11,10,03,19,25.70
2006,11,10,03,20,35.40
2006,11,10,03,21,33.80
2006,11,10,03,22,24.20
2006,11,10,03,23,30.60
2006,11,10,03,24,38.60
2006,11,10,03,25,41.80
2006,11,10,03,26,40.20
2006,11,10,03,27,38.60
2006,11,10,03,28,43.50
2006,11,10,03,29,41.80
2006,11,10,03,30,40.20
2006,11,10,03,31,35.40
2006,11,10,03,32,30.60
2006,11,10,03,33,29.00
2006,11,10,03,34,41.80
2006,11,10,03,35,33.80
2006,11,10,03,36,38.60
2006,11,10,03,37,43.50
2006,11,10,03,38,40.20
2006,11,10,03,39,30.60
2006,11,10,03,40,24.20
2006,11,10,03,41,40.20
2006,11,10,03,42,40.20
2006,11,10,03,43,38.60
2006,11,10,03,44,40.20
2006,11,10,03,45,41.80
2006,11,10,03,46,38.60
2006,11,10,03,47,38.60
2006,11,10,03,48,40.20
2006,11,10,03,49,45.10
2006,11,10,03,50,45.10
2006,11,10,03,51,30.60
2006,11,10,03,52,33.80
2006,11,10,03,53,48.30
2006,11,10,03,54,40.20
2006,11,10,03,55,41.80
2006,11,10,03,56,40.20
2006,11,10,03,57,38.60
2006,11,10,03,58,37.00
2006,11,10,03,59,45.10
2006,11,10,04,00,35.40
2006,11,10,04,01,40.20
2006,11,10,04,02,43.50
2006,11,10,04,03,40.20
2006,11,10,04,04,53.10
2006,11,10,04,05,43.50
2006,11,10,04,06,43.50
2006,11,10,04,07,38.60
2006,11,10,04,08,30.60
2006,11,10,04,09,37.00
2006,11,10,04,10,59.50
2006,11,10,04,11,41.80
2006,11,10,04,12,54.70
2006,11,10,04,13,40.20
2006,11,10,04,14,56.30
2006,11,10,04,15,49.90
2006,11,10,04,16,49.90
2006,11,10,04,17,43.50
2006,11,10,04,18,41.80
2006,11,10,04,19,45.10
2006,11,10,04,20,46.70
2006,11,10,04,21,45.10
2006,11,10,04,22,56.30
2006,11,10,04,23,46.70
2006,11,10,04,24,25.70
2006,11,10,04,25,43.50
2006,11,10,04,26,54.70
2006,11,10,04,27,53.10
2006,11,10,04,28,54.70
2006,11,10,04,29,46.70
2006,11,10,04,30,49.90
2006,11,10,04,31,38.60
2006,11,10,04,32,41.80
2006,11,10,04,33,51.50
2006,11,10,04,34,45.10
2006,11,10,04,35,74.00
2006,11,10,04,36,40.20
2006,11,10,04,37,43.50
2006,11,10,04,38,40.20
2006,11,10,04,39,41.80
2006,11,10,04,40,49.90
2006,11,10,04,41,48.30
2006,11,10,04,42,51.50
2006,11,10,04,43,43.50
2006,11,10,04,44,48.30
2006,11,10,04,45,57.90
2006,11,10,04,46,37.00
2006,11,10,04,47,43.50
2006,11,10,04,48,48.30
2006,11,10,04,49,38.60
2006,11,10,04,50,48.30
2006,11,10,04,51,53.10
2006,11,10,04,52,49.90
2006,11,10,04,53,41.80
2006,11,10,04,54,64.40
2006,11,10,04,55,57.90
2006,11,10,04,56,54.70
2006,11,10,04,57,35.40
2006,11,10,04,58,40.20
2006,11,10,04,59,54.70
2006,11,10,05,00,46.70
2006,11,10,05,01,51.50
2006,11,10,05,02,49.90
2006,11,10,05,03,41.80
2006,11,10,05,04,53.10
2006,11,10,05,05,53.10
2006,11,10,05,06,59.50
2006,11,10,05,07,43.50
2006,11,10,05,08,64.40
2006,11,10,05,09,53.10
2006,11,10,05,10,56.30
2006,11,10,05,11,38.60
2006,11,10,05,12,41.80
2006,11,10,05,13,56.30
2006,11,10,05,14,46.70
2006,11,10,05,15,57.90
2006,11,10,05,16,45.10
2006,11,10,05,17,45.10
2006,11,10,05,18,43.50
2006,11,10,05,19,43.50
2006,11,10,05,20,41.80
2006,11,10,05,21,59.50
2006,11,10,05,22,45.10
2006,11,10,05,23,37.00
2006,11,10,05,24,41.80
2006,11,10,05,25,53.10
2006,11,10,05,26,41.80
2006,11,10,05,27,46.70
2006,11,10,05,28,53.10
2006,11,10,05,29,51.50
2006,11,10,05,30,48.30
2006,11,10,05,31,40.20
2006,11,10,05,32,32.20
2006,11,10,05,33,53.10
2006,11,10,05,34,45.10
2006,11,10,05,35,54.70
2006,11,10,05,36,57.90
2006,11,10,05,37,46.70
2006,11,10,05,38,53.10
2006,11,10,05,39,53.10
2006,11,10,05,40,54.70
2006,11,10,05,41,61.20
2006,11,10,05,42,49.90
2006,11,10,05,43,54.70
2006,11,10,05,44,57.90
2006,11,10,05,45,40.20
2006,11,10,05,46,40.20
2006,11,10,05,47,49.90
2006,11,10,05,48,53.10
2006,11,10,05,49,41.80
2006,11,10,05,50,41.80
2006,11,10,05,51,48.30
2006,11,10,05,52,54.70
2006,11,10,05,53,53.10
2006,11,10,05,54,43.50
2006,11,10,05,55,41.80
2006,11,10,05,56,49.90
2006,11,10,05,57,62.70
2006,11,10,05,58,64.40
2006,11,10,05,59,61.20
2006,11,10,06,00,53.10
2006,11,10,06,01,53.10
2006,11,10,06,02,48.30
2006,11,10,06,03,57.90
2006,11,10,06,04,49.90
2006,11,10,06,05,56.30
2006,11,10,06,06,53.10
2006,11,10,06,07,51.50
2006,11,10,06,08,56.30
2006,11,10,06,09,45.10
2006,11,10,06,10,57.90
2006,11,10,06,11,49.90
2006,11,10,06,12,48.30
2006,11,10,06,13,56.30
2006,11,10,06,14,67.60
2006,11,10,06,15,53.10
2006,11,10,06,16,59.50
2006,11,10,06,17,64.40
2006,11,10,06,18,48.30
2006,11,10,06,19,53.10
2006,11,10,06,20,54.70
2006,11,10,06,21,53.10
2006,11,10,06,22,49.90
2006,11,10,06,23,53.10
2006,11,10,06,24,40.20
2006,11,10,06,25,49.90
2006,11,10,06,26,45.10
2006,11,10,06,27,54.70
2006,11,10,06,28,51.50
2006,11,10,06,29,56.30
2006,11,10,06,30,41.80
2006,11,10,06,31,53.10
2006,11,10,06,32,46.70
2006,11,10,06,33,40.20
2006,11,10,06,34,54.70
2006,11,10,06,35,43.50
2006,11,10,06,36,61.20
2006,11,10,06,37,49.90
2006,11,10,06,38,56.30
2006,11,10,06,39,49.90
2006,11,10,06,40,56.30
2006,11,10,06,41,64.40
2006,11,10,06,42,54.70
2006,11,10,06,43,49.90
2006,11,10,06,44,41.80
2006,11,10,06,45,61.20
2006,11,10,06,46,53.10
2006,11,10,06,47,45.10
2006,11,10,06,48,59.50
2006,11,10,06,49,46.70
2006,11,10,06,50,53.10
2006,11,10,06,51,56.30
2006,11,10,06,52,43.50
2006,11,10,06,53,43.50
2006,11,10,06,54,64.40
2006,11,10,06,55,64.40
2006,11,10,06,56,45.10
2006,11,10,06,57,64.40
2006,11,10,06,58,51.50
2006,11,10,06,59,51.50
2006,11,10,07,00,43.50
2006,11,10,07,01,43.50
2006,11,10,07,02,59.50
2006,11,10,07,03,40.20
2006,11,10,07,04,59.50
2006,11,10,07,05,57.90
2006,11,10,07,06,51.50
2006,11,10,07,07,54.70
2006,11,10,07,08,56.30
2006,11,10,07,09,53.10
2006,11,10,07,10,49.90
2006,11,10,07,11,56.30
2006,11,10,07,12,59.50
2006,11,10,07,13,56.30
2006,11,10,07,14,64.40
2006,11,10,07,15,57.90
2006,11,10,07,16,49.90
2006,11,10,07,17,41.80
2006,11,10,07,18,45.10
2006,11,10,07,19,53.10
2006,11,10,07,20,45.10
2006,11,10,07,21,46.70
2006,11,10,07,22,46.70
2006,11,10,07,23,37.00
2006,11,10,07,24,43.50
2006,11,10,07,25,53.10
2006,11,10,07,26,53.10
2006,11,10,07,27,54.70
2006,11,10,07,28,48.30
2006,11,10,07,29,53.10
2006,11,10,07,30,45.10
2006,11,10,07,31,62.70
2006,11,10,07,32,51.50
2006,11,10,07,33,45.10
2006,11,10,07,34,59.50
2006,11,10,07,35,53.10
2006,11,10,07,36,45.10
2006,11,10,07,37,51.50
2006,11,10,07,38,43.50
2006,11,10,07,39,53.10
2006,11,10,07,40,45.10
2006,11,10,07,41,51.50
2006,11,10,07,42,51.50
2006,11,10,07,43,40.20
2006,11,10,07,44,37.00
2006,11,10,07,45,38.60
2006,11,10,07,46,56.30
2006,11,10,07,47,53.10
2006,11,10,07,48,33.80
2006,11,10,07,49,56.30
2006,11,10,07,50,37.00
2006,11,10,07,51,30.60
2006,11,10,07,52,54.70
2006,11,10,07,53,45.10
2006,11,10,07,54,45.10
2006,11,10,07,55,43.50
2006,11,10,07,56,51.50
2006,11,10,07,57,43.50
2006,11,10,07,58,51.50
2006,11,10,07,59,38.60
2006,11,10,08,00,48.30
2006,11,10,08,01,56.30
2006,11,10,08,02,33.80
2006,11,10,08,03,49.90
2006,11,10,08,04,35.40
2006,11,10,08,05,46.70
2006,11,10,08,06,41.80
2006,11,10,08,07,38.60
2006,11,10,08,08,49.90
2006,11,10,08,09,43.50
2006,11,10,08,10,45.10
2006,11,10,08,11,41.80
2006,11,10,08,12,33.80
2006,11,10,08,13,40.20
2006,11,10,08,14,53.10
2006,11,10,08,15,43.50
2006,11,10,08,16,45.10
2006,11,10,08,17,56.30
2006,11,10,08,18,37.00
2006,11,10,08,19,33.80
2006,11,10,08,20,30.60
2006,11,10,08,21,46.70
2006,11,10,08,22,27.40
2006,11,10,08,23,27.40
2006,11,10,08,24,30.60
2006,11,10,08,25,29.00
2006,11,10,08,26,38.60
2006,11,10,08,27,32.20
2006,11,10,08,28,53.10
2006,11,10,08,29,46.70
2006,11,10,08,30,27.40
2006,11,10,08,31,29.00
2006,11,10,08,32,24.20
2006,11,10,08,33,35.40
2006,11,10,08,34,33.80
2006,11,10,08,35,43.50
2006,11,10,08,36,40.20
2006,11,10,08,37,20.90
2006,11,10,08,38,38.60
2006,11,10,08,39,33.80
2006,11,10,08,40,27.40
2006,11,10,08,41,32.20
2006,11,10,08,42,38.60
2006,11,10,08,43,35.40
2006,11,10,08,44,27.40
2006,11,10,08,45,24.20
2006,11,10,08,46,25.70
2006,11,10,08,47,29.00
2006,11,10,08,48,30.60
2006,11,10,08,49,32.20
2006,11,10,08,50,37.00
2006,11,10,08,51,35.40
2006,11,10,08,52,37.00
2006,11,10,08,53,37.00
2006,11,10,08,54,38.60
2006,11,10,08,55,35.40
2006,11,10,08,56,25.70
2006,11,10,08,57,35.40
2006,11,10,08,58,29.00
2006,11,10,08,59,27.40
2006,11,10,09,00,24.20
2006,11,10,09,01,24.20
2006,11,10,09,02,33.80
2006,11,10,09,03,29.00
2006,11,10,09,04,25.70
2006,11,10,09,05,24.20
2006,11,10,09,06,22.50
2006,11,10,09,07,25.70
2006,11,10,09,08,27.40
2006,11,10,09,09,16.10
2006,11,10,09,10,22.50
2006,11,10,09,11,33.80
2006,11,10,09,12,29.00
2006,11,10,09,13,29.00
2006,11,10,09,14,35.40
2006,11,10,09,15,29.00
2006,11,10,09,16,33.80
2006,11,10,09,17,32.20
2006,11,10,09,18,40.20
2006,11,10,09,19,33.80
2006,11,10,09,20,32.20
2006,11,10,09,21,20.90
2006,11,10,09,22,25.70
2006,11,10,09,23,27.40
2006,11,10,09,24,25.70
2006,11,10,09,25,22.50
2006,11,10,09,26,22.50
2006,11,10,09,27,24.20
2006,11,10,09,28,20.90
2006,11,10,09,29,24.20
2006,11,10,09,30,37.00
2006,11,10,09,31,37.00
2006,11,10,09,32,25.70
2006,11,10,09,33,32.20
2006,11,10,09,34,22.50
2006,11,10,09,35,29.00
2006,11,10,09,36,37.00
2006,11,10,09,37,27.40
2006,11,10,09,38,20.90
2006,11,10,09,39,22.50
2006,11,10,09,40,25.70
2006,11,10,09,41,27.40
2006,11,10,09,42,30.60
2006,11,10,09,43,27.40
2006,11,10,09,44,25.70
2006,11,10,09,45,22.50
2006,11,10,09,46,22.50
2006,11,10,09,47,25.70
2006,11,10,09,48,24.20
2006,11,10,09,49,25.70
2006,11,10,09,50,25.70
2006,11,10,09,51,22.50
2006,11,10,09,52,17.70
2006,11,10,09,53,20.90
2006,11,10,09,54,22.50
2006,11,10,09,55,22.50
2006,11,10,09,56,22.50
2006,11,10,09,57,29.00
2006,11,10,09,58,24.20
2006,11,10,09,59,29.00
2006,11,10,10,00,19.30
2006,11,10,10,01,27.40
2006,11,10,10,02,25.70
2006,11,10,10,03,22.50
2006,11,10,10,04,16.10
2006,11,10,10,05,20.90
2006,11,10,10,06,24.20
2006,11,10,10,07,22.50
2006,11,10,10,08,19.30
2006,11,10,10,09,29.00
2006,11,10,10,10,24.20
2006,11,10,10,11,25.70
2006,11,10,10,12,20.90
2006,11,10,10,13,27.40
2006,11,10,10,14,20.90
2006,11,10,10,15,17.70
2006,11,10,10,16,29.00
2006,11,10,10,17,22.50
2006,11,10,10,18,25.70
2006,11,10,10,19,27.40
2006,11,10,10,20,24.20
2006,11,10,10,21,20.90
2006,11,10,10,22,20.90
2006,11,10,10,23,24.20
2006,11,10,10,24,16.10
2006,11,10,10,25,25.70
2006,11,10,10,26,17.70
2006,11,10,10,27,19.30
2006,11,10,10,28,17.70
2006,11,10,10,29,17.70
2006,11,10,10,30,22.50
2006,11,10,10,31,14.50
2006,11,10,10,32,17.70
2006,11,10,10,33,19.30
2006,11,10,10,34,12.90
2006,11,10,10,35,11.30
2006,11,10,10,36,16.10
2006,11,10,10,37,16.10
2006,11,10,10,38,11.30
2006,11,10,10,39,16.10
2006,11,10,10,40,16.10
2006,11,10,10,41,17.70
2006,11,10,10,42,17.70
2006,11,10,10,43,16.10
2006,11,10,10,44,16.10
2006,11,10,10,45,9.60
2006,11,10,10,46,16.10
2006,11,10,10,47,8.10
2006,11,10,10,48,9.60
2006,11,10,10,49,11.30
2006,11,10,10,50,16.10
2006,11,10,10,51,16.10
2006,11,10,10,52,14.50
2006,11,10,10,53,16.10
2006,11,10,10,54,19.30
2006,11,10,10,55,19.30
2006,11,10,10,56,17.70
2006,11,10,10,57,17.70
2006,11,10,10,58,12.90
2006,11,10,10,59,11.30
2006,11,10,11,00,9.60
2006,11,10,11,01,9.60
2006,11,10,11,02,12.90
2006,11,10,11,03,9.60
2006,11,10,11,04,9.60
2006,11,10,11,05,9.60
2006,11,10,11,06,12.90
2006,11,10,11,07,14.50
2006,11,10,11,08,11.30
2006,11,10,11,09,9.60
2006,11,10,11,10,12.90
2006,11,10,11,11,16.10
2006,11,10,11,12,14.50
2006,11,10,11,13,8.10
2006,11,10,11,14,9.60
2006,11,10,11,15,9.60
2006,11,10,11,16,12.90
2006,11,10,11,17,16.10
2006,11,10,11,18,14.50
2006,11,10,11,19,11.30
2006,11,10,11,20,9.60
2006,11,10,11,21,11.30
2006,11,10,11,22,17.70
2006,11,10,11,23,16.10
2006,11,10,11,24,8.10
2006,11,10,11,25,9.60
2006,11,10,11,26,9.60
2006,11,10,11,27,9.60
2006,11,10,11,28,9.60
2006,11,10,11,29,9.60
2006,11,10,11,30,9.60
2006,11,10,11,31,12.90
2006,11,10,11,32,9.60
2006,11,10,11,33,6.40
2006,11,10,11,34,6.40
2006,11,10,11,35,14.50
2006,11,10,11,36,6.40
2006,11,10,11,37,6.40
2006,11,10,11,38,9.60
2006,11,10,11,39,8.10
2006,11,10,11,40,9.60
2006,11,10,11,41,6.40
2006,11,10,11,42,6.40
2006,11,10,11,43,4.80
2006,11,10,11,44,9.60
2006,11,10,11,45,6.40
2006,11,10,11,46,9.60
2006,11,10,11,47,6.40
2006,11,10,11,48,9.60
2006,11,10,11,49,9.60
2006,11,10,11,50,4.80
2006,11,10,11,51,11.30
2006,11,10,11,52,6.40
2006,11,10,11,53,4.80
2006,11,10,11,54,4.80
2006,11,10,11,55,4.80
2006,11,10,11,56,11.30
2006,11,10,11,57,8.10
2006,11,10,11,58,4.80
2006,11,10,11,59,8.10
2006,11,10,12,00,6.40
2006,11,10,12,01,11.30
2006,11,10,12,02,9.60
2006,11,10,12,03,9.60
2006,11,10,12,04,9.60
2006,11,10,12,05,8.10
2006,11,10,12,06,9.60
2006,11,10,12,07,9.60
2006,11,10,12,08,9.60
2006,11,10,12,09,11.30
2006,11,10,12,10,11.30
2006,11,10,12,11,4.80
2006,11,10,12,12,6.40
2006,11,10,12,13,6.40
2006,11,10,12,14,4.80
2006,11,10,12,15,6.40
2006,11,10,12,16,8.10
2006,11,10,12,17,9.60
2006,11,10,12,18,9.60
2006,11,10,12,19,9.60
2006,11,10,12,20,8.10
2006,11,10,12,21,4.80
2006,11,10,12,22,8.10
2006,11,10,12,23,8.10
2006,11,10,12,24,9.60
2006,11,10,12,25,8.10
2006,11,10,12,26,9.60
2006,11,10,12,27,9.60
2006,11,10,12,28,9.60
2006,11,10,12,29,6.40
2006,11,10,12,30,6.40
2006,11,10,12,31,9.60
2006,11,10,12,32,8.10
2006,11,10,12,33,9.60
2006,11,10,12,34,8.10
2006,11,10,12,35,6.40
2006,11,10,12,36,4.80
2006,11,10,12,37,6.40
2006,11,10,12,38,8.10
2006,11,10,12,39,8.10
2006,11,10,12,40,9.60
2006,11,10,12,41,9.60
2006,11,10,12,42,9.60
2006,11,10,12,43,6.40
2006,11,10,12,44,6.40
2006,11,10,12,45,6.40
2006,11,10,12,46,4.80
2006,11,10,12,47,4.80
2006,11,10,12,48,8.10
2006,11,10,12,49,4.80
2006,11,10,12,50,6.40
2006,11,10,12,51,4.80
2006,11,10,12,52,6.40
2006,11,10,12,53,4.80
2006,11,10,12,54,8.10
2006,11,10,12,55,6.40
2006,11,10,12,56,6.40
2006,11,10,12,57,6.40
2006,11,10,12,58,4.80
2006,11,10,12,59,6.40
2006,11,10,13,00,8.10
2006,11,10,13,01,8.10
2006,11,10,13,02,8.10
2006,11,10,13,03,8.10
2006,11,10,13,04,3.20
2006,11,10,13,05,3.20
2006,11,10,13,06,3.20
2006,11,10,13,07,4.80
2006,11,10,13,08,6.40
2006,11,10,13,09,4.80
2006,11,10,13,10,6.40
2006,11,10,13,11,6.40
2006,11,10,13,12,4.80
2006,11,10,13,13,4.80
2006,11,10,13,14,1.60
2006,11,10,13,15,3.20
2006,11,10,13,16,4.80
2006,11,10,13,17,4.80
2006,11,10,13,18,8.10
2006,11,10,13,19,8.10
2006,11,10,13,20,6.40
2006,11,10,13,21,6.40
2006,11,10,13,22,8.10
2006,11,10,13,23,9.60
2006,11,10,13,24,9.60
2006,11,10,13,25,8.10
2006,11,10,13,26,6.40
2006,11,10,13,27,8.10
2006,11,10,13,28,8.10
2006,11,10,13,29,9.60
2006,11,10,13,30,9.60
2006,11,10,13,31,9.60
2006,11,10,13,32,8.10
2006,11,10,13,33,8.10
2006,11,10,13,34,9.60
2006,11,10,13,35,6.40
2006,11,10,13,36,8.10
2006,11,10,13,37,9.60
2006,11,10,13,38,6.40
2006,11,10,13,39,8.10
2006,11,10,13,40,11.30
2006,11,10,13,41,11.30
2006,11,10,13,42,11.30
2006,11,10,13,43,8.10
2006,11,10,13,44,8.10
2006,11,10,13,45,11.30
2006,11,10,13,46,4.80
2006,11,10,13,47,6.40
2006,11,10,13,48,8.10
2006,11,10,13,49,11.30
2006,11,10,13,50,9.60
2006,11,10,13,51,11.30
2006,11,10,13,52,11.30
2006,11,10,13,53,11.30
2006,11,10,13,54,8.10
2006,11,10,13,55,4.80
2006,11,10,13,56,8.10
2006,11,10,13,57,6.40
2006,11,10,13,58,6.40
2006,11,10,13,59,6.40
2006,11,10,14,00,8.10
2006,11,10,14,01,6.40
2006,11,10,14,02,8.10
2006,11,10,14,03,4.80
2006,11,10,14,04,8.10
2006,11,10,14,05,8.10
2006,11,10,14,06,6.40
2006,11,10,14,07,8.10
2006,11,10,14,08,8.10
2006,11,10,14,09,11.30
2006,11,10,14,10,8.10
2006,11,10,14,11,8.10
2006,11,10,14,12,6.40
2006,11,10,14,13,9.60
2006,11,10,14,14,8.10
2006,11,10,14,15,8.10
2006,11,10,14,16,9.60
2006,11,10,14,17,11.30
2006,11,10,14,18,11.30
2006,11,10,14,19,9.60
2006,11,10,14,20,12.90
2006,11,10,14,21,8.10
2006,11,10,14,22,9.60
2006,11,10,14,23,9.60
2006,11,10,14,24,11.30
2006,11,10,14,25,6.40
2006,11,10,14,26,8.10
2006,11,10,14,27,6.40
2006,11,10,14,28,8.10
2006,11,10,14,29,9.60
2006,11,10,14,30,9.60
2006,11,10,14,31,8.10
2006,11,10,14,32,12.90
2006,11,10,14,33,12.90
2006,11,10,14,34,11.30
2006,11,10,14,35,8.10
2006,11,10,14,36,6.40
2006,11,10,14,37,11.30
2006,11,10,14,38,11.30
2006,11,10,14,39,4.80
2006,11,10,14,40,8.10
2006,11,10,14,41,11.30
2006,11,10,14,42,14.50
2006,11,10,14,43,11.30
2006,11,10,14,44,9.60
2006,11,10,14,45,9.60
2006,11,10,14,46,8.10
2006,11,10,14,47,11.30
2006,11,10,14,48,9.60
2006,11,10,14,49,11.30
2006,11,10,14,50,8.10
2006,11,10,14,51,6.40
2006,11,10,14,52,8.10
2006,11,10,14,53,4.80
2006,11,10,14,54,4.80
2006,11,10,14,55,3.20
2006,11,10,14,56,3.20
2006,11,10,14,57,4.80
2006,11,10,14,58,4.80
2006,11,10,14,59,4.80
2006,11,10,15,00,9.60
2006,11,10,15,01,8.10
2006,11,10,15,02,4.80
2006,11,10,15,03,6.40
2006,11,10,15,04,4.80
2006,11,10,15,05,9.60
2006,11,10,15,06,14.50
2006,11,10,15,07,8.10
2006,11,10,15,08,9.60
2006,11,10,15,09,6.40
2006,11,10,15,10,4.80
2006,11,10,15,11,8.10
2006,11,10,15,12,8.10
2006,11,10,15,13,8.10
2006,11,10,15,14,9.60
2006,11,10,15,15,6.40
2006,11,10,15,16,6.40
2006,11,10,15,17,8.10
2006,11,10,15,18,6.40
2006,11,10,15,19,8.10
2006,11,10,15,20,8.10
2006,11,10,15,21,4.80
2006,11,10,15,22,8.10
2006,11,10,15,23,8.10
2006,11,10,15,24,9.60
2006,11,10,15,25,8.10
2006,11,10,15,26,8.10
2006,11,10,15,27,8.10
2006,11,10,15,28,8.10
2006,11,10,15,29,9.60
2006,11,10,15,30,8.10
2006,11,10,15,31,9.60
2006,11,10,15,32,4.80
2006,11,10,15,33,6.40
2006,11,10,15,34,4.80
2006,11,10,15,35,14.50
2006,11,10,15,36,12.90
2006,11,10,15,37,9.60
2006,11,10,15,38,8.10
2006,11,10,15,39,6.40
2006,11,10,15,40,6.40
2006,11,10,15,41,9.60
2006,11,10,15,42,11.30
2006,11,10,15,43,12.90
2006,11,10,15,44,4.80
2006,11,10,15,45,6.40
2006,11,10,15,46,4.80
2006,11,10,15,47,4.80
2006,11,10,15,48,9.60
2006,11,10,15,49,4.80
2006,11,10,15,50,4.80
2006,11,10,15,51,4.80
2006,11,10,15,52,6.40
2006,11,10,15,53,8.10
2006,11,10,15,54,8.10
2006,11,10,15,55,4.80
2006,11,10,15,56,8.10
2006,11,10,15,57,9.60
2006,11,10,15,58,11.30
2006,11,10,15,59,9.60
2006,11,10,16,00,11.30
2006,11,10,16,01,8.10
2006,11,10,16,02,9.60
2006,11,10,16,03,14.50
2006,11,10,16,04,8.10
2006,11,10,16,05,8.10
2006,11,10,16,06,9.60
2006,11,10,16,07,11.30
2006,11,10,16,08,9.60
2006,11,10,16,09,9.60
2006,11,10,16,10,6.40
2006,11,10,16,11,6.40
2006,11,10,16,12,6.40
2006,11,10,16,13,4.80
2006,11,10,16,14,3.20
2006,11,10,16,15,4.80
2006,11,10,16,16,8.10
2006,11,10,16,17,6.40
2006,11,10,16,18,6.40
2006,11,10,16,19,4.80
2006,11,10,16,20,3.20
2006,11,10,16,21,4.80
2006,11,10,16,22,3.20
2006,11,10,16,23,3.20
2006,11,10,16,24,3.20
2006,11,10,16,25,3.20
2006,11,10,16,26,1.60
2006,11,10,16,27,3.20
2006,11,10,16,28,3.20
2006,11,10,16,29,1.60
2006,11,10,16,30,3.20
2006,11,10,16,31,3.20
2006,11,10,16,32,3.20
2006,11,10,16,33,3.20
2006,11,10,16,34,3.20
2006,11,10,16,35,3.20
2006,11,10,16,36,4.80
2006,11,10,16,37,6.40
2006,11,10,16,38,6.40
2006,11,10,16,39,4.80
2006,11,10,16,40,4.80
2006,11,10,16,41,4.80
2006,11,10,16,42,4.80
2006,11,10,16,43,6.40
2006,11,10,16,44,4.80
2006,11,10,16,45,4.80
2006,11,10,16,46,6.40
2006,11,10,16,47,6.40
2006,11,10,16,48,6.40
2006,11,10,16,49,4.80
2006,11,10,16,50,8.10
2006,11,10,16,51,6.40
2006,11,10,16,52,8.10
2006,11,10,16,53,8.10
2006,11,10,16,54,8.10
2006,11,10,16,55,11.30
2006,11,10,16,56,17.70
2006,11,10,16,57,11.30
2006,11,10,16,58,8.10
2006,11,10,16,59,11.30
2006,11,10,17,00,11.30
2006,11,10,17,01,11.30
2006,11,10,17,02,16.10
2006,11,10,17,03,19.30
2006,11,10,17,04,16.10
2006,11,10,17,05,14.50
2006,11,10,17,06,16.10
2006,11,10,17,07,9.60
2006,11,10,17,08,11.30
2006,11,10,17,09,8.10
2006,11,10,17,10,11.30
2006,11,10,17,11,8.10
2006,11,10,17,12,9.60
2006,11,10,17,13,8.10
2006,11,10,17,14,8.10
2006,11,10,17,15,3.20
2006,11,10,17,16,6.40
2006,11,10,17,17,8.10
2006,11,10,17,18,4.80
2006,11,10,17,19,8.10
2006,11,10,17,20,6.40
2006,11,10,17,21,6.40
2006,11,10,17,22,6.40
2006,11,10,17,23,6.40
2006,11,10,17,24,6.40
2006,11,10,17,25,8.10
2006,11,10,17,26,8.10
2006,11,10,17,27,6.40
2006,11,10,17,28,6.40
2006,11,10,17,29,11.30
2006,11,10,17,30,11.30
2006,11,10,17,31,4.80
2006,11,10,17,32,8.10
2006,11,10,17,33,6.40